User: anonymous   Login
Location: Unspecified
(0.0000°N, 0.0000°E)
Time: 00:07:20
(UTC+00:00)
Language:

SKIF-D - Orbit

View from above orbital plane
View from above orbital plane
View from above satellite
View from above satellite

Ground track
Ground track

The orbit is defined by the following mean orbital elements,

1 54153U          26144.27366501 +.00000000 +00000-0 +00000-0 0 00008
2 54153  89.9543  96.6746 0007378 209.4053 150.5897  5.00435639    04
Epoch (UTC): 24 May 2026 06:34:04
Eccentricity: 0.0007378
inclination: 89.9543°
perigee height: 8049 km
apogee height: 8070 km
right ascension of ascending node: 96.6746°
argument of perigee: 209.4053°
revolutions per day: 5.00435639
mean anomaly at epoch: 150.5897°

The dashed part of the orbit path shows where the satellite is in the earth's shadow,  

DLR